Tracking 27422 objects as of 29-May-2023
HD Live streaming from Space Station
objects crossing your sky now

STARLINK-1156

Track STARLINK-1156 now!
10-day predictions
STARLINK-1156 is classified as:


NORAD ID: 45054
Int'l Code: 2020-006L
Perigee: 553.6 km
Apogee: 555.1 km
Inclination: 53.1 °
Period: 95.6 minutes
Semi major axis: 6925 km
RCS: Unknown
Launch date: January 29, 2020
Source: United States (US)
Launch site: AIR FORCE EASTERN TEST RANGE (AFETR)
Your satellite tracking list
Your tracking list is empty




NASA's NSSDC Master Catalog

Two Line Element Set (TLE):
1 45054U 20006L   23149.42587566  .00001054  00000-0  89648-4 0  9997
2 45054  53.0535 164.3106 0001102  70.1362 289.9745 15.06405762183434
Source of the keplerian elements: AFSPC